Flag for Canada Weather past 2 weeks in Oshawa, Ontario, Canada

Now
59 °F

Passing clouds.


Feels Like: 60 °F
Forecast: 58 / 69 °F
Wind: 3 mph from South

Location: Toronto Buttonville

Current Time: Jul 30, 2014 at 1:11:48 AM

Latest Report: Jul 30, 2014 at 12:00 AM


Visibility: 15 mi

Pressure: 29.94 "Hg

Humidity: 88%

Dew point: 55 °F

Location of OshawaLocation

Historic Weather in Oshawa — Graph

°F

Oshawa temperature yesterday

Maximum temperature yesterday: 70 °F (at 2:00 PM)
Minimum temperature yesterday: 57 °F (at 2:00 AM)
Average temperature yesterday: 63 °F

Past Weeks' High & Low Weather Summary

 TemperatureHumidityPressure
High84 °F (Jul 27, 4:00 PM)100% (Jul 20, 4:00 AM)30.25 "Hg (Jul 20, 4:00 AM)
Low48 °F (Jul 17, 6:00 AM)33% (Jul 18, 8:00 PM)29.61 "Hg (Jul 27, 6:00 PM)
Average66 °F72%29.96 "Hg
* Reported Midnight between Jul 14 and Jul 15 — Midnight between Jul 29 and Jul 30, Oshawa, Weather by CustomWeather, © 2014

Note: Actual official high and low records may vary slightly from our data, if they occured in-between our weather recording intervals... More about our weather records

Advertising

Oshawa weather history for previous 24 hours

 ConditionsComfort  
Time TempWeatherWind HumidityBarometerVisibility
12:00 AM
Jul 30
59 °FPassing clouds.3 mph88%29.94 "Hg15 mi
11:00 PM
Jul 29
63 °FPassing clouds.5 mph77%29.95 "Hg15 mi
10:00 PM63 °FOvercast.8 mph77%29.96 "Hg15 mi
9:00 PM63 °FOvercast.6 mph77%29.95 "Hg15 mi
8:00 PM64 °FOvercast.5 mph73%29.95 "Hg15 mi
7:00 PM68 °FOvercast.7 mph56%29.94 "Hg15 mi
6:00 PM66 °FOvercast.7 mph60%29.93 "Hg15 mi
5:00 PM68 °FMostly cloudy.9 mph56%29.93 "Hg15 mi
4:00 PM68 °FMostly cloudy.8 mph53%29.92 "Hg15 mi
3:00 PM70 °FMostly cloudy.8 mph46%29.92 "Hg15 mi
2:00 PM70 °FPartly sunny.7 mph46%29.92 "Hg15 mi
1:00 PM68 °FPartly sunny.8 mph49%29.93 "Hg15 mi
12:00 PM68 °FBroken clouds.7 mph46%29.94 "Hg15 mi
11:00 AM68 °FPartly sunny.7 mph56%29.94 "Hg15 mi
10:00 AM64 °FPartly sunny.7 mph68%29.93 "Hg15 mi
9:00 AM63 °FPartly sunny.7 mph73%29.93 "Hg15 mi
8:00 AM59 °FPartly sunny.6 mph82%29.92 "Hg15 mi
7:00 AM57 °FPassing clouds.9 mph88%29.91 "Hg15 mi
6:00 AM57 °FPassing clouds.7 mph88%29.90 "Hg15 mi
5:00 AM57 °FPassing clouds.7 mph88%29.88 "Hg15 mi
4:00 AM57 °FPassing clouds.12 mph88%29.87 "Hg15 mi
3:00 AM59 °FPassing clouds.8 mph82%29.87 "Hg15 mi
2:00 AM57 °FPassing clouds.7 mph82%29.87 "Hg15 mi
1:00 AM59 °FPassing clouds.7 mph77%29.88 "Hg15 mi
Weather by CustomWeather, © 2014

See weather overviewHow to use our weather pages